Starlink 5580

operational
NORAD ID: 55748 Int'l Des: 2023-028 Owner: SPXS Country: US Constellation: starlink
LEOCIRCULAR

About Starlink 5580

Description loading...

Live Position

Loading 3D Globe...

Upcoming Passes

Altitude History

Altitude vs Time

uPlot chart will show altitude changes over time

Two-Line Element Set

1 55748U 23028H 25260.14371214 .00001798 00000-0 15841-3 0 9999
2 55748 69.9993 322.0695 0003416 266.0549 94.0219 14.98337599140041
Epoch: Sep 17, 2025 • Age: 22 hours

Current Status

Altitude 585.3 km
Velocity 7.57 km/s
Sub-Earth Point -40.15°S, 80.61°W
Launch Date Mar 3, 2023
Age 2.5 years
Type internet

Technical Details

Classification Payload
Mass 305.00 kg
Dry Mass 290.00 kg
Total Mass 305.00 kg
Length 0.20 m
Diameter 2.80 m
Span 9.00 m
Shape Box + pan
Manufacturer SPXS
Bus Type Starlink
Phase Status In Orbit
Owner/State SPXS/US

Large Constellations

Loading constellations...